Location: Newark
(30.8333°N, 61.6667°E)
Time: 08:55:04
(UTC+00:00)

ISS - Visible Passes

Search period start: 25 August 2019 00:00
Search period end: 04 September 2019 00:00
Orbit: 410 x 421 km, 51.6° (Epoch: 26 August)

Date Brightness Start Highest point End Pass type
(mag) Time Alt. Az. Time Alt. Az. Time Alt. Az.
26 Aug -3.9 00:30:05 19° SW 00:32:18 82° NW 00:35:39 10° NE visible
26 Aug -3.0 23:43:39 45° SE 23:43:39 45° SE 23:46:46 10° ENE visible
27 Aug -0.5 22:57:08 12° E 22:57:08 12° E 22:57:31 10° ENE visible
28 Aug -2.3 00:30:02 18° WNW 00:31:29 24° NW 00:34:17 10° NNE visible
28 Aug -2.6 23:43:25 36° N 23:43:25 36° N 23:45:49 10° NNE visible
29 Aug -0.4 22:56:43 13° NE 22:56:43 13° NE 22:57:06 10° NE visible
30 Aug -1.2 23:42:50 14° NNW 23:42:50 14° NNW 23:43:59 10° N visible
